This is the latest recevied weather packets stored in our database for station/object KM4LTG. If no packets are shown the sender has not sent any weather packets the latest 10 day(s).
| Time | Temp. | Humidity | Pressure | Rain* | Wind** | Luminosity | Snow |
|---|---|---|---|---|---|---|---|
| 1777503515 | 26.67° C | 75% | 1013.9 hPa | 0 mm | - | - | - |
| 1777503222 | 26.67° C | 76% | 1014 hPa | 0 mm | - | - | - |
| 1777502933 | 26.11° C | 76% | 1013.9 hPa | 0 mm | - | - | - |
| 1777502687 | 26.11° C | 77% | 1013.9 hPa | 0 mm | - | - | - |
| 1777502401 | 26.11° C | 77% | 1013.8 hPa | 0 mm | - | - | - |
| 1777502156 | 26.11° C | 77% | 1013.8 hPa | 0 mm | - | - | - |
| 1777501861 | 26.11° C | 76% | 1013.6 hPa | 0 mm | - | - | - |
| 1777501601 | 26.11° C | 77% | 1013.8 hPa | 0 mm | - | - | - |
| 1777501320 | 26.11° C | 76% | 1013.8 hPa | 0 mm | - | - | - |
| 1777501058 | 26.67° C | 76% | 1013.7 hPa | 0 mm | - | - | - |
| 1777500791 | 27.22° C | 74% | 1013.8 hPa | 0 mm | - | - | - |
| 1777500536 | 26.67° C | 76% | 1013.8 hPa | 0 mm | - | - | - |
| 1777500266 | 26.67° C | 75% | 1013.8 hPa | 0 mm | - | - | - |
| 1777499986 | 27.22° C | 74% | 1013.7 hPa | 0 mm | - | - | - |
| 1777499727 | 27.22° C | 74% | 1013.7 hPa | 0 mm | - | - | - |
| 1777499451 | 27.22° C | 73% | 1013.6 hPa | 0 mm | - | - | - |
| 1777499212 | 27.22° C | 73% | 1013.8 hPa | 0 mm | - | - | - |
| 1777498940 | 27.22° C | 74% | 1013.9 hPa | 0 mm | - | - | - |
| 1777498681 | 27.22° C | 71% | 1013.9 hPa | 0 mm | - | - | - |
| 1777498421 | 27.78° C | 73% | 1013.9 hPa | 0 mm | - | - | - |
| 1777498176 | 27.22° C | 72% | 1013.8 hPa | 0 mm | - | - | - |
| 1777497889 | 27.22° C | 72% | 1013.9 hPa | 0 mm | - | - | - |
| 1777497641 | 27.22° C | 72% | 1013.9 hPa | 0 mm | - | - | - |
| 1777497361 | 27.78° C | 72% | 1013.9 hPa | 0 mm | - | - | - |
| 1777497096 | 27.78° C | 72% | 1014 hPa | 0 mm | - | - | - |
* Rain latest hour (hover to see other rain measurements)
** Current wind speed in m/s (hover to see current wind gust speed)